Location: Ash Swamp
(41.5170°N, 74.6157°W)
Time: 02:45:07
(UTC+00:00)

Cosmos 1703 - Pass Details

Date: 14 July 2020
Orbit: 525 x 539 km, 82.5° (Epoch: 14 August)

Event Time Altitude Azimuth Distance (km) Brightness Sun altitude
Rises 01:16:25 0° 200° (SSW) 2,644 6.6 -7.8°
Reaches altitude 10° 01:18:36 10° 206° (SSW) 1,761 5.8 -8.1°
Maximum altitude 01:22:20 47° 281° (W) 707 4.4 -8.6°
Drops below altitude 10° 01:26:07 10° 356° (N) 1,779 6.6 -9.2°
Sets 01:28:20 0° 2° (N) 2,675 7.4 -9.5°
